When you browse on this site, cookies collect data to enhance your experience and personalize the content and advertising you see.
Visit our Privacy Policy to learn more. By continuing to use the site, you agree to this use of cookies and data.
  • In Switzerland
  • List of Countries
  • For 7 days
  • Water Temperature
  • Satellite Maps
  • Weather Map
  • Weather Widgets
  • user-avatar
    Login

    Hourly Weather Sad

    Today, 24 May, Friday

    Time Temperature Precipitation Wind Pressure Humidity
    00:00 +16°C° 0 mm 2 mps 741 mmHg 87%
    01:00 +16°C° 0 mm 2 mps 740 mmHg 89%
    02:00 +15°C° 0 mm 1 mps 740 mmHg 90%
    03:00 +16°C° 0 mm 2 mps 740 mmHg 90%
    04:00 +16°C° 0 mm 2 mps 741 mmHg 90%
    05:00 +16°C° 0 mm 2 mps 741 mmHg 90%
    06:00 +18°C° 0 mm 2 mps 741 mmHg 85%
    07:00 +19°C° 0 mm 2 mps 741 mmHg 80%
    08:00 +21°C° 0 mm 2 mps 741 mmHg 75%
    09:00 +23°C° 0.6 mm 2 mps 741 mmHg 70%
    10:00 +24°C° 0.6 mm 2 mps 741 mmHg 65%
    11:00 +25°C° 0.6 mm 2 mps 741 mmHg 60%
    12:00 +26°C° 0.2 mm 2 mps 741 mmHg 58%
    13:00 +26°C° 0.2 mm 2 mps 741 mmHg 56%
    14:00 +26°C° 0.2 mm 1 mps 741 mmHg 54%
    15:00 +26°C° 0.4 mm 1 mps 741 mmHg 57%
    16:00 +26°C° 0.4 mm 1 mps 741 mmHg 61%
    17:00 +24°C° 0.4 mm 0 mps 741 mmHg 64%
    18:00 +24°C° 0.8 mm 1 mps 741 mmHg 69%
    19:00 +22°C° 0.8 mm 1 mps 741 mmHg 74%
    20:00 +20°C° 0.8 mm 1 mps 741 mmHg 79%
    21:00 +20°C° 1.3 mm 1 mps 741 mmHg 81%
    22:00 +19°C° 1.3 mm 1 mps 741 mmHg 83%
    23:00 +18°C° 1.3 mm 1 mps 741 mmHg 86%

    Tomorrow, 25 May, Saturday

    Time Temperature Precipitation Wind Pressure Humidity
    00:00 +18°C° 0 mm 1 mps 741 mmHg 87%
    01:00 +18°C° 0 mm 1 mps 741 mmHg 88%
    02:00 +16°C° 0 mm 1 mps 741 mmHg 90%
    03:00 +18°C° 0.1 mm 1 mps 740 mmHg 90%
    04:00 +18°C° 0.1 mm 1 mps 740 mmHg 90%
    05:00 +18°C° 0.1 mm 1 mps 740 mmHg 90%
    06:00 +19°C° 0.7 mm 1 mps 740 mmHg 87%
    07:00 +19°C° 0.7 mm 2 mps 740 mmHg 85%
    08:00 +20°C° 0.7 mm 2 mps 740 mmHg 82%
    09:00 +20°C° 0.8 mm 2 mps 740 mmHg 78%
    10:00 +21°C° 0.8 mm 2 mps 740 mmHg 74%
    11:00 +23°C° 0.8 mm 1 mps 740 mmHg 70%
    12:00 +23°C° 0.7 mm 2 mps 740 mmHg 68%
    13:00 +23°C° 0.7 mm 2 mps 739 mmHg 67%
    14:00 +24°C° 0.7 mm 2 mps 739 mmHg 66%
    15:00 +24°C° 0.1 mm 2 mps 739 mmHg 67%
    16:00 +24°C° 0.1 mm 2 mps 738 mmHg 67%
    17:00 +24°C° 0.1 mm 2 mps 738 mmHg 68%
    18:00 +21°C° 1.3 mm 2 mps 738 mmHg 74%
    19:00 +19°C° 1.3 mm 2 mps 738 mmHg 79%
    20:00 +18°C° 1.3 mm 2 mps 738 mmHg 84%
    21:00 +18°C° 0 mm 1 mps 738 mmHg 86%
    22:00 +18°C° 0 mm 1 mps 738 mmHg 87%
    23:00 +16°C° 0 mm 1 mps 738 mmHg 88%

    Day after tomorrow, 26 May, Sunday

    Time Temperature Precipitation Wind Pressure Humidity
    00:00 +16°C° 0 mm 1 mps 738 mmHg 89%
    01:00 +15°C° 0 mm 1 mps 738 mmHg 90%
    02:00 +15°C° 0 mm 1 mps 738 mmHg 90%
    03:00 +15°C° 0.1 mm 1 mps 738 mmHg 91%
    04:00 +15°C° 0.1 mm 2 mps 738 mmHg 92%
    05:00 +15°C° 0.1 mm 2 mps 738 mmHg 93%
    06:00 +17°C° 0 mm 3 mps 739 mmHg 89%
    07:00 +18°C° 0 mm 3 mps 739 mmHg 86%
    08:00 +20°C° 0 mm 4 mps 739 mmHg 83%
    09:00 +21°C° 0.2 mm 4 mps 739 mmHg 78%
    10:00 +22°C° 0.2 mm 5 mps 739 mmHg 74%
    11:00 +22°C° 0.2 mm 6 mps 739 mmHg 69%
    12:00 +23°C° 0.1 mm 5 mps 740 mmHg 67%
    13:00 +23°C° 0.1 mm 5 mps 740 mmHg 65%
    14:00 +23°C° 0.1 mm 5 mps 740 mmHg 62%
    15:00 +22°C° 0.2 mm 5 mps 740 mmHg 66%
    16:00 +22°C° 0.2 mm 4 mps 741 mmHg 70%
    17:00 +21°C° 0.2 mm 4 mps 741 mmHg 74%
    18:00 +20°C° 0 mm 4 mps 741 mmHg 78%
    19:00 +18°C° 0 mm 3 mps 741 mmHg 82%
    20:00 +17°C° 0 mm 3 mps 742 mmHg 86%
    21:00 +16°C° 0 mm 3 mps 742 mmHg 87%
    22:00 +14°C° 0 mm 3 mps 742 mmHg 88%
    23:00 +14°C° 0 mm 3 mps 743 mmHg 89%

    27 May, Monday

    Time Temperature Precipitation Wind Pressure Humidity
    00:00 +14°C° 0 mm 2 mps 743 mmHg 88%
    01:00 +14°C° 0 mm 2 mps 743 mmHg 87%
    02:00 +13°C° 0 mm 2 mps 744 mmHg 86%
    03:00 +13°C° 0 mm 2 mps 744 mmHg 86%
    04:00 +14°C° 0 mm 2 mps 744 mmHg 87%
    05:00 +14°C° 0 mm 2 mps 744 mmHg 88%
    06:00 +16°C° 0 mm 2 mps 745 mmHg 82%
    07:00 +18°C° 0 mm 2 mps 745 mmHg 76%
    08:00 +20°C° 0 mm 3 mps 745 mmHg 70%
    09:00 +21°C° 0 mm 3 mps 746 mmHg 67%
    10:00 +22°C° 0 mm 4 mps 746 mmHg 65%
    11:00 +23°C° 0 mm 4 mps 746 mmHg 62%
    12:00 +23°C° 0.2 mm 4 mps 746 mmHg 63%
    13:00 +23°C° 0.2 mm 5 mps 746 mmHg 65%
    14:00 +23°C° 0.2 mm 5 mps 746 mmHg 67%
    15:00 +23°C° 0.3 mm 5 mps 746 mmHg 70%
    16:00 +23°C° 0.3 mm 4 mps 746 mmHg 74%
    17:00 +23°C° 0.3 mm 4 mps 746 mmHg 77%
    18:00 +21°C° 0.3 mm 3 mps 746 mmHg 81%
    19:00 +20°C° 0.3 mm 3 mps 747 mmHg 85%
    20:00 +19°C° 0.3 mm 2 mps 747 mmHg 89%
    21:00 +18°C° 0 mm 2 mps 747 mmHg 90%
    22:00 +18°C° 0 mm 2 mps 747 mmHg 91%
    23:00 +17°C° 0 mm 2 mps 747 mmHg 92%

    28 May, Tuesday

    Time Temperature Precipitation Wind Pressure Humidity
    00:00 +17°C° 0 mm 2 mps 747 mmHg 92%
    01:00 +17°C° 0 mm 3 mps 747 mmHg 92%
    02:00 +17°C° 0 mm 3 mps 747 mmHg 92%
    03:00 +17°C° 0.1 mm 3 mps 747 mmHg 92%
    04:00 +17°C° 0.1 mm 3 mps 747 mmHg 91%
    05:00 +17°C° 0.1 mm 3 mps 748 mmHg 91%
    06:00 +19°C° 0.1 mm 3 mps 748 mmHg 87%
    07:00 +20°C° 0.1 mm 3 mps 748 mmHg 83%
    08:00 +22°C° 0.1 mm 3 mps 748 mmHg 79%
    09:00 +23°C° 0 mm 4 mps 748 mmHg 73%
    10:00 +26°C° 0 mm 5 mps 748 mmHg 67%
    11:00 +27°C° 0 mm 6 mps 748 mmHg 60%
    12:00 +27°C° 0 mm 6 mps 748 mmHg 60%
    13:00 +27°C° 0 mm 6 mps 748 mmHg 59%
    14:00 +28°C° 0 mm 5 mps 748 mmHg 58%
    15:00 +27°C° 0 mm 5 mps 747 mmHg 63%
    16:00 +27°C° 0 mm 4 mps 747 mmHg 67%
    17:00 +27°C° 0 mm 3 mps 747 mmHg 71%
    18:00 +25°C° 0 mm 3 mps 747 mmHg 74%
    19:00 +24°C° 0 mm 3 mps 747 mmHg 77%
    20:00 +21°C° 0 mm 3 mps 747 mmHg 80%
    21:00 +21°C° 0 mm 3 mps 747 mmHg 82%
    22:00 +20°C° 0 mm 4 mps 747 mmHg 83%
    23:00 +20°C° 0 mm 4 mps 747 mmHg 84%

    29 May, Wednesday

    Time Temperature Precipitation Wind Pressure Humidity
    00:00 +19°C° 0 mm 4 mps 747 mmHg 85%
    01:00 +18°C° 0 mm 4 mps 747 mmHg 85%
    02:00 +17°C° 0 mm 4 mps 747 mmHg 86%
    03:00 +17°C° 0 mm 4 mps 747 mmHg 86%
    04:00 +18°C° 0 mm 4 mps 747 mmHg 87%
    05:00 +17°C° 0 mm 5 mps 747 mmHg 88%
    06:00 +19°C° 0 mm 5 mps 747 mmHg 83%
    07:00 +21°C° 0 mm 6 mps 747 mmHg 78%
    08:00 +23°C° 0 mm 7 mps 747 mmHg 73%
    09:00 +24°C° 0 mm 7 mps 747 mmHg 69%
    10:00 +26°C° 0 mm 7 mps 747 mmHg 65%
    11:00 +27°C° 0 mm 7 mps 747 mmHg 61%
    12:00 +27°C° 0 mm 7 mps 747 mmHg 60%
    13:00 +28°C° 0 mm 7 mps 746 mmHg 60%
    14:00 +28°C° 0 mm 6 mps 746 mmHg 59%
    15:00 +28°C° 0 mm 6 mps 746 mmHg 63%
    16:00 +28°C° 0 mm 5 mps 746 mmHg 66%
    17:00 +27°C° 0 mm 4 mps 746 mmHg 70%
    18:00 +26°C° 0 mm 4 mps 746 mmHg 70%
    19:00 +25°C° 0 mm 5 mps 746 mmHg 69%
    20:00 +23°C° 0 mm 5 mps 746 mmHg 69%
    21:00 +22°C° 0.1 mm 5 mps 746 mmHg 73%
    22:00 +22°C° 0.1 mm 5 mps 746 mmHg 76%
    23:00 +21°C° 0.1 mm 4 mps 746 mmHg 79%
    Show more